This is the latest recevied weather packets stored in our database for station/object M0HPP-13. If no packets are shown the sender has not sent any weather packets the latest 10 day(s).
| Time | Temp. | Humidity | Pressure | Rain* | Wind** | Luminosity | Snow |
|---|---|---|---|---|---|---|---|
| 1777720219 | 8.89° C | 94% | 1014.3 hPa | 0 mm | - | 39 W/m² | - |
| 1777719619 | 8.89° C | 94% | 1014.3 hPa | 0 mm | - | 53 W/m² | - |
| 1777719019 | 8.89° C | 93% | 1014.2 hPa | 0 mm | - | 64 W/m² | - |
| 1777718419 | 8.89° C | 92% | 1014.1 hPa | 0 mm | - | 54 W/m² | - |
| 1777717819 | 8.89° C | 90% | 1014 hPa | 0 mm | - | 60 W/m² | - |
| 1777717219 | 9.44° C | 88% | 1014 hPa | 0 mm | - | 72 W/m² | - |
| 1777716619 | 9.44° C | 88% | 1013.9 hPa | 0 mm | - | 116 W/m² | - |
| 1777716019 | 9.44° C | 87% | 1013.8 hPa | 0 mm | - | 139 W/m² | - |
| 1777715419 | 9.44° C | 88% | 1013.7 hPa | 0 mm | - | 134 W/m² | - |
| 1777714819 | 10° C | 87% | 1013.8 hPa | 0 mm | - | 132 W/m² | - |
| 1777714219 | 10° C | 85% | 1013.7 hPa | 0 mm | - | 155 W/m² | - |
| 1777713619 | 10° C | 85% | 1013.7 hPa | 0 mm | - | 248 W/m² | - |
| 1777713019 | 10° C | 86% | 1013.7 hPa | 0 mm | - | 224 W/m² | - |
| 1777712419 | 10° C | 86% | 1013.6 hPa | 0 mm | - | 167 W/m² | - |
| 1777711819 | 10° C | 88% | 1013.6 hPa | 0 mm | - | 133 W/m² | - |
| 1777711219 | 9.44° C | 86% | 1013.6 hPa | 0 mm | - | 141 W/m² | - |
| 1777710619 | 9.44° C | 86% | 1013.6 hPa | 0 mm | - | 67 W/m² | - |
| 1777710019 | 9.44° C | 87% | 1013.5 hPa | 0 mm | - | 81 W/m² | - |
| 1777709419 | 9.44° C | 87% | 1013.4 hPa | 0 mm | - | 77 W/m² | - |
| 1777708819 | 9.44° C | 88% | 1013.3 hPa | 0 mm | - | 66 W/m² | - |
| 1777708219 | 9.44° C | 89% | 1013.3 hPa | 0 mm | - | 57 W/m² | - |
| 1777707619 | 9.44° C | 90% | 1013.3 hPa | 0 mm | - | 62 W/m² | - |
| 1777707019 | 9.44° C | 89% | 1013.2 hPa | 0 mm | - | 45 W/m² | - |
| 1777706419 | 9.44° C | 88% | 1013.2 hPa | 0 mm | - | 31 W/m² | - |
| 1777705819 | 9.44° C | 85% | 1013 hPa | 0 mm | - | 30 W/m² | - |
* Rain latest hour (hover to see other rain measurements)
** Current wind speed in m/s (hover to see current wind gust speed)